User: anonymous   Login
Location: Celina Division
(33.3022°N, 96.7580°W)
Time: 07:55:32
(UTC+00:00)
Language:

CZ-4C DEB - Orbit

View from above orbital plane
View from above orbital plane
View from above satellite
View from above satellite

Ground track
Ground track

The orbit data is extracted from the following two-line orbital elements,

1 43261U 18031C   23339.20888403  .00004948  00000-0  61557-3 0  9994
2 43261  97.8672  53.7623 0004321  67.4632 292.7038 14.82960365306454
Epoch (UTC): 05 December 2023 05:00:47
Eccentricity: 0.0004321
inclination: 97.8672°
perigee height: 617 km
apogee height: 623 km
right ascension of ascending node: 53.7623°
argument of perigee: 67.4632°
revolutions per day: 14.82960365
mean anomaly at epoch: 292.7038°
orbit number at epoch: 30645

The dashed part of the orbit path shows where the satellite is in the earth's shadow,  

DLR